Location: Casilda
(33.0440°S, 61.1680°W)
Time: 00:09:11
(UTC-03:00)

ISS - Pass Details

Date: 14 February 2020
Orbit: 415 x 423 km, 51.6° (Epoch: 27 February)

Event Time Altitude Azimuth Distance (km) Brightness Sun altitude
Rises 22:00:12 0° 292° (WNW) 2,365 0.5 -24.0°
Reaches altitude 10° 22:02:27 10° 281° (W) 1,506 -0.4 -24.4°
Maximum altitude 22:05:28 29° 218° (SW) 803 -1.8 -24.9°
Enters shadow 22:06:20 26° 189° (S) 885 -1.7 -25.1°
